Weather History for Fort Lauderdale, FL

Change the Weather History Date:

Friday, February 15, 2013

  Actual Average Record
Temperature  
Mean Temperature 66 °F -  
Max Temperature 70 °F 78 °F 85 °F (1993)
Min Temperature 62 °F 58 °F 39 °F (1960)
Cooling Degree Days 1    
Growing Degree Days 16 (Base 50)    
Moisture  
Dew Point 64 °F    
Average Humidity 98    
Maximum Humidity 100    
Minimum Humidity 84    
Precipitation  
Precipitation 0.74 in - - ()
Sea Level Pressure  
Sea Level Pressure 29.99 in    
Wind  
Wind Speed 4 mph (NNE)    
Max Wind Speed 12 mph    
Max Gust Speed -    
Visibility 9 miles    
Events Rain    
Averages and records for this station are not official NWS values.
T = Trace of Precipitation, MM = Missing Value Source: NWS Daily Summary

Daily Weather History Graph

Daily Weather History Graph

Search for Another Location

Airport:

Trip Planner

Search our weather history database for the weather conditions in past years. The results will help you decide how hot, cold, wet, or windy it might be!

Date:

Astronomy

Feb. 15, 2013 Rise Set
Actual Time 6:56 AM EST 6:13 PM EST
Civil Twilight 6:32 AM EST 6:37 PM EST
Nautical Twilight 6:05 AM EST 7:04 PM EST
Astronomical Twilight 5:38 AM EST 7:31 PM EST
Moon 10:08 AM EST (2/15) 11:32 PM EST (2/15)
Length of Visible Light 12h 04m
Length of Day
11h 17m
Waxing Crescent, 30% of the Moon is Illuminated
Feb 15
Waxing Crescent
Feb 17
First Quarter
Feb 25
Full
Mar 4
Last Quarter
Mar 11
New

Hourly Weather History & Observations

Time (EST) Temp. Dew Point Humidity Pressure Visibility Wind Dir Wind Speed Gust Speed Precip Events Conditions
12:53 AM 62.1 °F 62.1 °F 100% 29.99 in 10.0 mi North 5.8 mph - 0.03 in Rain Light Rain
1:00 AM 62.6 °F 62.6 °F 100% 29.98 in 10.0 mi North 5.8 mph - 0.01 in Rain Light Rain
1:32 AM 62.6 °F 62.6 °F 100% 29.99 in 10.0 mi Calm Calm - 0.01 in Rain Light Rain
1:53 AM 62.1 °F 62.1 °F 100% 29.99 in 3.0 mi Calm Calm - 0.07 in Rain Heavy Rain
2:17 AM 62.6 °F 62.6 °F 100% 29.97 in 10.0 mi Calm Calm - 0.07 in Rain Rain
2:26 AM 62.6 °F 62.6 °F 100% 29.97 in 10.0 mi NNE 5.8 mph - 0.09 in Rain Light Rain
2:46 AM 62.6 °F 62.6 °F 100% 29.97 in 10.0 mi NW 3.5 mph - 0.16 in Rain Heavy Rain
2:53 AM 63.0 °F 63.0 °F 100% 29.98 in 4.0 mi West 3.5 mph - 0.18 in Rain Rain
3:00 AM 62.6 °F 62.6 °F 100% 29.97 in 10.0 mi Calm Calm - 0.04 in Rain Heavy Rain
3:53 AM 63.0 °F 63.0 °F 100% 29.96 in 10.0 mi NE 4.6 mph - 0.06 in   Overcast
4:00 AM 64.4 °F 64.4 °F 100% 29.96 in 10.0 mi NE 4.6 mph - N/A   Overcast
4:26 AM 64.4 °F 64.4 °F 100% 29.96 in 10.0 mi Calm Calm - N/A   Overcast
4:40 AM 64.4 °F 64.4 °F 100% 29.96 in 10.0 mi Calm Calm - 0.01 in Rain Light Rain
4:51 AM 64.4 °F 64.4 °F 100% 29.96 in 10.0 mi NNE 3.5 mph - 0.01 in Rain Light Rain
4:53 AM 64.9 °F 64.9 °F 100% 29.97 in 10.0 mi Calm Calm - 0.01 in Rain Light Rain
5:20 AM 64.4 °F 64.4 °F 100% 29.98 in 10.0 mi Calm Calm - 0.03 in Rain Rain
5:44 AM 64.4 °F 64.4 °F 100% 29.98 in 10.0 mi North 3.5 mph - 0.09 in Rain Light Rain
5:53 AM 64.9 °F 64.9 °F 100% 29.99 in 6.0 mi NNE 4.6 mph - 0.10 in Rain Light Rain
6:25 AM 64.4 °F 64.4 °F 100% 29.99 in 10.0 mi NNE 5.8 mph - 0.00 in   Overcast
6:40 AM 64.4 °F 64.4 °F 100% 29.98 in 10.0 mi NE 5.8 mph - 0.00 in   Overcast
6:51 AM 64.4 °F 64.4 °F 100% 29.99 in 10.0 mi NE 5.8 mph - 0.00 in   Overcast
6:53 AM 64.9 °F 64.9 °F 100% 30.00 in 10.0 mi NE 4.6 mph - 0.00 in   Overcast
7:02 AM 64.4 °F 64.4 °F 100% 29.99 in 10.0 mi NNE 5.8 mph - N/A   Overcast
7:12 AM 64.4 °F 64.4 °F 100% 30.00 in 10.0 mi NE 4.6 mph - N/A   Overcast
7:48 AM 64.4 °F 64.4 °F 100% 30.01 in 10.0 mi NNW 4.6 mph - N/A   Overcast
7:53 AM 64.9 °F 64.9 °F 100% 30.02 in 10.0 mi North 3.5 mph - N/A   Overcast
8:53 AM 68.0 °F 64.9 °F 90% 30.03 in 10.0 mi NE 5.8 mph - N/A   Overcast
9:00 AM 68.0 °F 64.4 °F 88% 30.02 in 10.0 mi ENE 6.9 mph - N/A   Overcast
9:53 AM 70.0 °F 66.0 °F 87% 30.02 in 10.0 mi East 11.5 mph - N/A   Overcast
10:53 AM 70.0 °F 64.9 °F 84% 30.03 in 10.0 mi NE 6.9 mph - N/A   Overcast
11:53 AM 70.0 °F 66.0 °F 87% 30.02 in 10.0 mi NE 5.8 mph - 0.01 in Rain Light Rain
12:00 PM 69.8 °F 66.2 °F 88% 30.02 in 10.0 mi NE 4.6 mph - 0.00 in   Overcast
12:53 PM 68.0 °F 64.9 °F 90% 30.01 in 10.0 mi NNW 8.1 mph - 0.00 in Rain Light Rain
1:53 PM 64.9 °F 64.0 °F 97% 29.99 in 5.0 mi NNW 4.6 mph - 0.07 in Rain Light Rain
2:53 PM 66.0 °F 64.0 °F 93% 29.98 in 6.0 mi NW 5.8 mph - 0.04 in Rain Rain
3:53 PM 64.9 °F 64.0 °F 97% 29.97 in 10.0 mi Variable 3.5 mph - 0.04 in Rain Light Rain
4:03 PM 64.4 °F 64.4 °F 100% 29.97 in 10.0 mi NW 3.5 mph - 0.00 in Rain Light Rain
4:53 PM 64.9 °F 64.0 °F 97% 29.98 in 7.0 mi Calm Calm - 0.03 in Rain Light Rain
5:53 PM 64.0 °F 64.0 °F 100% 29.98 in 7.0 mi NNW 4.6 mph - 0.05 in Rain Light Rain
6:53 PM 64.0 °F 63.0 °F 96% 29.96 in 10.0 mi NNE 3.5 mph - 0.01 in Rain Light Rain
7:53 PM 64.0 °F 63.0 °F 96% 29.97 in 10.0 mi Calm Calm - 0.02 in Rain Light Rain
8:53 PM 64.0 °F 64.0 °F 100% 29.98 in 10.0 mi Calm Calm - 0.02 in Rain Light Rain
9:53 PM 64.0 °F 64.0 °F 100% 29.98 in 10.0 mi Calm Calm - 0.00 in   Mostly Cloudy
10:53 PM 64.0 °F 64.0 °F 100% 29.98 in 10.0 mi Calm Calm - N/A   Mostly Cloudy
11:53 PM 64.0 °F 64.0 °F 100% 29.96 in 10.0 mi Calm Calm - N/A   Overcast